Flag for Italy Weather past 2 weeks in Naples, Italy

Now
50 °F

Clear.


Feels Like: 50 °F
Forecast: 51 / 67 °F
Wind: 1 mph from North

Location: Naples / Capodichino

Current Time: Mar 29, 2015 at 3:15:37 AM

Latest Report: Mar 29, 2015 at 1:20 AM


Visibility: 10 mi

Pressure: 29.89 "Hg

Humidity: 47%

Dew point: 30 °F

Location of NaplesLocation

Historic Weather in Naples — Graph

°F

Naples temperature yesterday

Maximum temperature yesterday: 64 °F (at 12:50 PM)
Minimum temperature yesterday: 50 °F (at 11:20 PM)
Average temperature yesterday: 59 °F

Past Weeks' High & Low Weather Summary

 TemperatureHumidityPressure
High72 °F (Mar 26, 1:20 PM)100% (Mar 22, 7:50 PM)30.24 "Hg (Mar 22, 7:50 PM)
Low39 °F (Mar 14, 3:20 AM)25% (Mar 20, 12:50 PM)29.36 "Hg (Mar 25, 6:50 AM)
Average56 °F67%29.96 "Hg
* Reported Mar 14 12:20 AM — Mar 29 12:50 AM, Naples, Weather by CustomWeather, © 2015

Note: Actual official high and low records may vary slightly from our data, if they occured in-between our weather recording intervals... More about our weather records

Advertising

Naples weather history for previous 24 hours

 ConditionsComfort  
Time TempWeatherWind HumidityBarometerVisibility
12:50 AM
Sun, Mar 29
50 °FClear.3 mph47%29.92 "Hg10 mi
12:20 AM52 °FClear.8 mph44%29.92 "Hg10 mi
11:50 PM
Sat, Mar 28
50 °FClear.7 mph47%29.92 "Hg10 mi
11:20 PM50 °FClear.6 mph50%29.92 "Hg10 mi
10:50 PM52 °FClear.7 mph44%29.92 "Hg10 mi
10:20 PM54 °FClear.5 mph41%29.92 "Hg10 mi
9:20 PM54 °FPassing clouds.3 mph41%29.92 "HgN/A
8:50 PM55 °FPassing clouds.5 mph38%29.92 "HgN/A
8:20 PM55 °FPassing clouds.6 mph38%29.89 "HgN/A
7:50 PM57 °FPassing clouds.7 mph41%29.89 "HgN/A
7:20 PM57 °FPassing clouds.5 mph44%29.86 "HgN/A
6:50 PM57 °FPassing clouds.5 mph41%29.86 "HgN/A
6:20 PM59 °FPassing clouds.10 mph36%29.86 "HgN/A
5:50 PM61 °FPassing clouds.12 mph34%29.83 "HgN/A
5:20 PM63 °FSunny.13 mph32%29.83 "Hg10 mi
4:50 PM63 °FPassing clouds.10 mph34%29.83 "HgN/A
4:20 PM63 °FSunny.10 mph37%29.83 "Hg10 mi
3:50 PM64 °FPassing clouds.13 mph34%29.80 "HgN/A
3:20 PM64 °FPassing clouds.17 mph32%29.80 "HgN/A
2:50 PM64 °FPassing clouds.15 mph43%29.80 "HgN/A
2:20 PM64 °FPassing clouds.16 mph37%29.80 "HgN/A
1:50 PM64 °FPassing clouds.18 mph37%29.83 "HgN/A
1:20 PM64 °FPassing clouds.18 mph34%29.83 "HgN/A
12:50 PM64 °FPassing clouds.16 mph34%29.83 "HgN/A
12:20 PM63 °FScattered clouds.16 mph34%29.83 "HgN/A
11:50 AM63 °FPassing clouds.15 mph37%29.83 "HgN/A
11:20 AM63 °FPassing clouds.18 mph39%29.83 "HgN/A
10:50 AM63 °FPassing clouds.16 mph34%29.83 "HgN/A
10:20 AM63 °FPassing clouds.15 mph39%29.80 "HgN/A
9:50 AM61 °FPassing clouds.14 mph42%29.80 "HgN/A
9:20 AM61 °FScattered clouds.13 mph48%29.80 "HgN/A
8:50 AM59 °FScattered clouds.9 mph51%29.80 "HgN/A
8:20 AM57 °FScattered clouds.8 mph55%29.77 "HgN/A
7:50 AM57 °FScattered clouds.5 mph51%29.77 "HgN/A
7:20 AM55 °FScattered clouds.7 mph55%29.77 "HgN/A
6:50 AM54 °FScattered clouds.7 mph58%29.77 "HgN/A
6:20 AM55 °FScattered clouds.18 mph55%29.74 "HgN/A
5:50 AM57 °FPassing clouds.18 mph51%29.74 "HgN/A
5:20 AM55 °FPassing clouds.17 mph55%29.74 "HgN/A
4:50 AM57 °FPassing clouds.16 mph59%29.74 "HgN/A
4:20 AM57 °FPassing clouds.13 mph55%29.74 "HgN/A
3:50 AM55 °FPassing clouds.14 mph63%29.71 "HgN/A
3:20 AM55 °FPassing clouds.8 mph63%29.71 "HgN/A
Weather by CustomWeather, © 2015

See weather overviewHow to use our weather pages